[[{"header":{"parameterUnit":"m.s-1","parameterCategory":1,"la1":30.2991,"la2":30.254,"lo1":-89.0895,"lo2":-89.0444,"dy":0.0017,"dx":0.0017,"nx":28,"ny":28,"refTime":"2023-10-17T03:00:00:Z","depth":0,"parameterNumber":2,"parameterNumberName":"U-component_of_WINDS"},"data":[0,0,0,0,0,0,0,0,0,0,0,0,0,0,0,0,0,0,0,0,0,0,0,0,0,0,0,0,0,0,0,0,0,0,0,0,0,0,0,0,0,0,0,0,0,0,0,0,0,0,0,0,0,0,0,0,0,0,-2.272,-2.272,0,-2.2748,-2.2748,-2.2748,-2.2732,-2.2731,-2.273,-2.273,-2.2757,-2.2759,-2.276,0,0,0,0,0,0,0,0,0,0,0,0,0,-2.2653,-2.2654,-2.272,-2.272,-2.272,-2.2748,-2.2748,-2.2748,-2.2732,-2.2731,-2.273,-2.2729,-2.2757,-2.2759,-2.276,0,0,0,0,0,0,0,0,0,0,0,0,0,-2.2682,-2.2655,-2.272,-2.2716,-2.2716,-2.2748,-2.2748,-2.2748,-2.2732,-2.2731,-2.273,-2.2729,-2.2756,-2.2758,-2.2761,-2.2798,0,0,-2.2767,-2.2768,0,0,0,0,0,0,0,0,-2.268,-2.2684,-2.2716,-2.2716,-2.2716,-2.2735,-2.2735,-2.2765,-2.2733,-2.2726,-2.273,-2.2728,-2.2751,-2.2753,-2.2761,-2.2799,-2.28,-2.2767,-2.2769,-2.277,-2.277,0,0,0,0,0,0,0,-2.2678,-2.2683,-2.2731,-2.2716,-2.2716,-2.2713,-2.2715,-2.274,-2.2745,-2.2726,-2.2725,-2.2729,-2.2751,-2.2759,-2.2762,-2.2801,-2.2767,-2.2769,-2.2771,-2.2772,-2.2871,-2.2873,0,0,0,0,0,0,-2.2676,-2.2681,-2.273,-2.2732,-2.2695,-2.2715,-2.2718,-2.273,-2.2744,-2.2745,-2.273,-2.2728,-2.2756,-2.2759,-2.2763,-2.2807,-2.277,-2.2772,-2.2773,-2.287,-2.2872,-2.2873,0,0,0,0,0,0,-2.2675,-2.2681,-2.2729,-2.2706,-2.2712,-2.2717,-2.2731,-2.2731,-2.274,-2.2747,-2.2748,-2.2738,-2.2755,-2.276,-2.2789,-2.2808,-2.2773,-2.2775,-2.2869,-2.2871,-2.2872,-2.2896,0,0,0,0,0,0,-2.2673,-2.268,-2.2694,-2.2707,-2.2713,-2.2755,-2.2732,-2.2733,-2.2744,-2.2742,-2.2754,-2.2755,-2.2755,-2.2786,-2.2792,-2.281,-2.2777,-2.2867,-2.2869,-2.2872,-2.2893,-2.2898,-2.2903,0,0,0,0,0,-2.2671,-2.2699,-2.2695,-2.2701,-2.2731,-2.2756,-2.276,-2.2758,-2.2745,-2.2759,-2.2764,-2.2755,-2.2806,-2.2789,-2.2795,-2.2815,-2.2866,-2.2869,-2.2872,-2.2891,-2.2897,-2.2902,0,0,0,0,0,0,-2.2688,-2.2701,-2.2696,-2.2729,-2.2742,-2.2753,-2.277,-2.2765,-2.278,-2.2778,-2.2776,-2.2779,-2.281,-2.2816,-2.2797,-2.2852,-2.2834,-2.2838,-2.2846,-2.2852,-2.2857,-2.2854,-2.2778,0,0,0,0,0,-2.2696,-2.2715,-2.2726,-2.2754,-2.2761,-2.2765,-2.2776,-2.2774,-2.2786,-2.2791,-2.2798,-2.2811,-2.2829,-2.2842,-2.2859,-2.2895,-2.2898,-2.2912,-2.2916,-2.292,-2.2923,-2.2943,-2.2949,-2.2883,-2.2883,-2.2883,0,0,-2.2712,-2.2721,-2.2733,-2.2758,-2.2767,-2.2787,-2.2769,-2.2791,-2.2806,-2.2794,-2.2823,-2.2829,-2.2843,-2.2876,-2.2891,-2.2882,-2.2943,-2.2924,-2.2927,-2.2928,-2.2947,-2.2953,-2.2958,-2.2885,-2.2885,-2.2884,0,0,-2.2751,-2.276,-2.2785,-2.2795,-2.281,-2.2813,-2.2819,-2.2832,-2.2836,-2.2865,-2.2857,-2.2875,-2.2907,-2.2917,-2.2927,-2.2973,-2.2965,-2.2979,-2.3002,-2.3021,-2.3027,-2.3031,-2.3047,-2.3053,-2.2983,-2.2983,-2.2983,0,-2.2768,-2.2798,-2.2798,-2.2821,-2.2832,-2.2825,-2.285,-2.286,-2.2879,-2.2887,-2.2877,-2.2918,-2.2927,-2.2963,-2.2974,-2.2983,-2.2989,-2.2976,-2.3026,-2.3031,-2.3035,-2.305,-2.3056,-2.2984,-2.2984,-2.2984,-2.2984,0,-2.2819,-2.284,-2.2858,-2.2878,-2.2892,-2.2916,-2.292,-2.2934,-2.2932,-2.2936,-2.2966,-2.2977,-2.2997,-2.3006,-2.3004,-2.3042,-2.3036,-2.3026,-2.3007,-2.3043,-2.3056,-2.3062,-2.2986,-2.2986,-2.2985,-2.2985,0,0,-2.2866,-2.2888,-2.2894,-2.2903,-2.2921,-2.2937,-2.2962,-2.2982,-2.2993,-2.3008,-2.3028,-2.3057,-2.3049,-2.306,-2.306,-2.3077,-2.3112,-2.3065,-2.3065,-2.3072,-2.3154,-2.316,-2.3166,-2.3108,-2.3109,-2.311,-2.3153,0,-2.2905,-2.2947,-2.2949,-2.2987,-2.3007,-2.3001,-2.3023,-2.3036,-2.3042,-2.3059,-2.3066,-2.3086,-2.3074,-2.308,-2.3098,-2.3104,-2.3128,-2.3101,-2.3126,-2.3127,-2.312,-2.3174,-2.3179,-2.3218,-2.3158,-2.3159,-2.316,0,-2.2955,-2.2972,-2.3012,-2.3028,-2.3036,-2.3055,-2.3074,-2.3092,-2.3107,-2.311,-2.3124,-2.3121,-2.3147,-2.313,-2.3165,-2.3146,-2.3157,-2.3163,-2.3164,-2.3164,-2.3144,-2.3174,-2.3231,-2.3236,-2.3168,-2.3168,-2.3167,0,-2.2983,-2.3017,-2.3045,-2.3054,-2.3073,-2.3086,-2.3095,-2.311,-2.3122,-2.314,-2.3148,-2.3168,-2.3178,-2.3194,-2.3198,-2.3185,-2.3233,-2.3216,-2.3236,-2.3236,-2.3244,-2.3243,-2.3301,-2.3254,-2.3254,-2.3254,-2.3254,0,-2.3025,-2.3049,-2.3059,-2.3076,-2.3104,-2.3107,-2.3135,-2.3142,-2.3156,-2.3175,-2.3173,-2.319,-2.3195,-2.3214,-2.3218,-2.3246,-2.3251,-2.3254,-2.3254,-2.3253,-2.3252,-2.3258,-2.3255,-2.3256,-2.3255,-2.3255,-2.3255,0,-2.306,-2.3067,-2.3098,-2.3115,-2.312,-2.3139,-2.3153,-2.317,-2.3177,-2.3201,-2.3207,-2.3217,-2.324,-2.3246,-2.3273,-2.3275,-2.3308,-2.3307,-2.3303,-2.3302,-2.3321,-2.3319,-2.3384,-2.3392,-2.3341,-2.3342,-2.3342,0,-2.3085,-2.3104,-2.3123,-2.3136,-2.3145,-2.3166,-2.3179,-2.3184,-2.3198,-2.3219,-2.3233,-2.3256,-2.3274,-2.331,-2.332,-2.3341,-2.3339,-2.3361,-2.3342,-2.334,-2.3338,-2.3336,-2.3337,-2.3363,-2.3364,-2.3364,-2.3365,0,-2.3128,-2.3131,-2.315,-2.3171,-2.3187,-2.3204,-2.322,-2.3231,-2.3238,-2.3254,-2.3277,-2.3292,-2.332,-2.3342,-2.3364,-2.3374,-2.337,-2.3371,-2.3376,-2.3374,-2.337,-2.3371,-2.331,-2.3369,-2.3368,-2.3368,-2.3368,-2.3367,-2.3158,-2.3175,-2.3191,-2.3213,-2.3226,-2.3241,-2.3258,-2.3268,-2.3287,-2.3311,-2.3313,-2.3339,-2.3356,-2.3384,-2.3395,-2.3416,-2.3409,-2.3417,-2.3419,-2.342,-2.3421,-2.3369,-2.342,-2.342,-2.342,-2.342,-2.3419,0,-2.3199,-2.3211,-2.3231,-2.3254,-2.3271,-2.3268,-2.3287,-2.3301,-2.3323,-2.334,-2.3358,-2.3386,-2.3408,-2.3421,-2.3443,-2.3457,-2.3456,-2.3463,-2.3461,-2.3463,-2.3426,-2.3419,-2.3463,-2.3463,-2.3463,-2.3463,-2.3463,-2.3463,-2.3223,-2.3251,-2.3257,-2.3292,-2.3303,-2.3328,-2.3339,-2.3353,-2.3366,-2.3397,-2.3416,-2.3425,-2.344,-2.3464,-2.3484,-2.3488,-2.3495,-2.3502,-2.3505,-2.347,-2.3465,-2.3461,-2.3454,-2.3505,-2.3505,-2.3539,-2.354,-2.354]},{"header":{"parameterUnit":"m.s-1","parameterCategory":1,"la1":30.2991,"la2":30.254,"lo1":-89.0895,"lo2":-89.0444,"dy":0.0017,"dx":0.0017,"nx":28,"ny":28,"refTime":"2023-10-17T03:00:00:Z","depth":0,"parameterNumber":3,"parameterNumberName":"V-component_of_WINDS"},"data":[0,0,0,0,0,0,0,0,0,0,0,0,0,0,0,0,0,0,0,0,0,0,0,0,0,0,0,0,0,0,0,0,0,0,0,0,0,0,0,0,0,0,0,0,0,0,0,0,0,0,0,0,0,0,0,0,0,0,2.1679,2.1679,0,2.165,2.1649,2.1649,2.1681,2.1682,2.1683,2.1685,2.1649,2.1647,2.1645,0,0,0,0,0,0,0,0,0,0,0,0,0,2.1758,2.1757,2.1679,2.1679,2.1678,2.165,2.1649,2.1649,2.1681,2.1682,2.1684,2.1685,2.165,2.1647,2.1645,0,0,0,0,0,0,0,0,0,0,0,0,0,2.1726,2.1756,2.1679,2.1691,2.1692,2.165,2.1649,2.1649,2.168,2.1682,2.1684,2.1686,2.165,2.1647,2.1644,2.1588,0,0,2.1635,2.1633,0,0,0,0,0,0,0,0,2.1727,2.1723,2.169,2.169,2.1691,2.1671,2.1664,2.1628,2.168,2.1684,2.1685,2.1687,2.1654,2.1651,2.1641,2.1586,2.1584,2.1634,2.1632,2.1631,2.163,0,0,0,0,0,0,0,2.173,2.1724,2.1667,2.1689,2.169,2.1696,2.1694,2.1657,2.1659,2.1684,2.1687,2.1683,2.1655,2.1644,2.1641,2.1584,2.1634,2.1632,2.163,2.1628,2.148,2.1478,0,0,0,0,0,0,2.1731,2.1726,2.1668,2.1666,2.1714,2.1693,2.169,2.1675,2.166,2.1659,2.1681,2.1685,2.1649,2.1644,2.1639,2.1572,2.1631,2.1628,2.1626,2.1482,2.148,2.1478,0,0,0,0,0,0,2.1733,2.1726,2.1669,2.1697,2.169,2.169,2.1673,2.1674,2.1663,2.1658,2.1658,2.167,2.165,2.1644,2.1601,2.1571,2.1627,2.1624,2.1485,2.1482,2.1479,2.1436,0,0,0,0,0,0,2.1735,2.1726,2.1706,2.1696,2.1689,2.1632,2.1671,2.1672,2.1658,2.1662,2.1647,2.1646,2.1651,2.1605,2.1597,2.1568,2.1621,2.1487,2.1483,2.148,2.144,2.1432,2.1425,0,0,0,0,0,2.1738,2.1694,2.1704,2.1697,2.1663,2.163,2.1626,2.1634,2.1656,2.1634,2.1631,2.1647,2.1576,2.16,2.1592,2.1561,2.1489,2.1484,2.148,2.1443,2.1433,2.1425,0,0,0,0,0,0,2.1697,2.1692,2.1704,2.1656,2.1644,2.1636,2.1609,2.1623,2.1602,2.1606,2.1615,2.1612,2.1566,2.1559,2.1587,2.1505,2.1536,2.1529,2.1511,2.1501,2.1494,2.1496,2.1619,0,0,0,0,0,2.1683,2.1659,2.1655,2.1613,2.1606,2.1609,2.1595,2.1602,2.1589,2.1583,2.1576,2.1561,2.1536,2.1518,2.1495,2.144,2.1436,2.1414,2.1407,2.14,2.1394,2.1364,2.1354,2.1463,2.1463,2.1463,0,0,2.1653,2.1647,2.1631,2.1605,2.1596,2.1569,2.1604,2.1574,2.1553,2.1578,2.1537,2.1532,2.1515,2.1466,2.1444,2.1459,2.1364,2.1395,2.139,2.1387,2.1358,2.1348,2.1339,2.1459,2.146,2.1461,0,0,2.1584,2.1578,2.1542,2.1533,2.152,2.1522,2.1513,2.1504,2.1502,2.1461,2.1479,2.1455,2.141,2.1398,2.1386,2.1314,2.1327,2.1306,2.1265,2.1236,2.1227,2.122,2.1193,2.1183,2.13,2.13,2.13,0,2.1547,2.1509,2.1521,2.149,2.1477,2.1501,2.1464,2.1454,2.1433,2.1423,2.1441,2.1387,2.1377,2.1325,2.1308,2.1298,2.1287,2.1306,2.1228,2.1221,2.1214,2.1188,2.1178,2.1297,2.1297,2.1298,2.1298,0,2.1464,2.1437,2.1409,2.1391,2.1375,2.1341,2.1347,2.1329,2.1338,2.1338,2.1296,2.1287,2.1261,2.125,2.1257,2.1199,2.1208,2.1227,2.1258,2.12,2.1176,2.1167,2.1293,2.1294,2.1295,2.1296,0,0,2.1366,2.1357,2.1346,2.1338,2.1326,2.1304,2.1271,2.1249,2.1233,2.1218,2.1189,2.1152,2.117,2.1156,2.1163,2.1137,2.108,2.1159,2.1159,2.1144,2.1013,2.0999,2.0987,2.109,2.1088,2.1087,2.1014,0,2.1296,2.1241,2.1251,2.1196,2.1171,2.1193,2.1164,2.1153,2.1153,2.113,2.1129,2.1102,2.1128,2.1119,2.1095,2.1092,2.1054,2.1098,2.1061,2.106,2.1063,2.0975,2.0959,2.0891,2.1005,2.1004,2.1003,0,2.1207,2.1191,2.1133,2.1126,2.1116,2.109,2.107,2.1049,2.1036,2.1037,2.1023,2.1035,2.1,2.1033,2.0985,2.1015,2.1001,2.0997,2.0995,2.099,2.1027,2.0966,2.087,2.0859,2.0988,2.0989,2.099,0,2.114,2.1104,2.1065,2.1058,2.1049,2.103,2.1025,2.1014,2.1,2.0982,2.0973,2.0951,2.0938,2.092,2.0925,2.0948,2.0875,2.0908,2.0873,2.0873,2.0855,2.0856,2.0754,2.0849,2.0849,2.0849,2.0849,0,2.106,2.1024,2.1036,2.1011,2.0971,2.0984,2.0943,2.0941,2.0932,2.0906,2.0924,2.09,2.0909,2.0885,2.0888,2.0847,2.0841,2.084,2.0841,2.0838,2.0838,2.0828,2.0832,2.0846,2.0847,2.0848,2.0848,0,2.0978,2.0985,2.0944,2.0939,2.0937,2.0908,2.0903,2.088,2.0882,2.0849,2.0843,2.0844,2.0817,2.0821,2.0789,2.0792,2.074,2.0748,2.0745,2.0746,2.0711,2.0713,2.0597,2.0581,2.0688,2.0687,2.0686,0,2.0926,2.0899,2.0892,2.0878,2.0872,2.0848,2.0834,2.0845,2.0829,2.0814,2.0792,2.0767,2.0747,2.0702,2.0699,2.0675,2.0681,2.0642,2.0677,2.0675,2.0679,2.068,2.0677,2.0634,2.0633,2.0632,2.0631,0,2.0832,2.0837,2.0817,2.0799,2.0782,2.0768,2.0754,2.0741,2.0751,2.0732,2.0706,2.069,2.066,2.0634,2.0612,2.0605,2.0619,2.0621,2.0611,2.0606,2.0605,2.0604,2.0724,2.0623,2.0624,2.0624,2.0625,2.0625,2.0762,2.074,2.0732,2.0709,2.0701,2.0689,2.0667,2.0667,2.0645,2.0622,2.063,2.0599,2.0587,2.0559,2.055,2.0525,2.0539,2.0526,2.0522,2.0518,2.0513,2.0611,2.0521,2.0522,2.0522,2.0522,2.0522,0,2.0669,2.0665,2.0645,2.0627,2.0609,2.0627,2.0613,2.0596,2.057,2.0558,2.0539,2.0508,2.0483,2.048,2.0456,2.0436,2.0442,2.043,2.043,2.0428,2.0503,2.0513,2.0425,2.0425,2.0425,2.0425,2.0425,2.0425,2.0618,2.058,2.0584,2.0542,2.0539,2.051,2.0501,2.0489,2.048,2.0445,2.0426,2.0424,2.0416,2.0392,2.0369,2.0369,2.0358,2.0343,2.0344,2.0413,2.0423,2.0432,2.0442,2.0341,2.0341,2.0272,2.0271,2.0271]}]]